Flag for Portugal Weather past 2 weeks in Ponta Delgada, Azores, Portugal

Now
59 °F

Passing clouds.


Feels Like: 57 °F
Forecast: 57 / 61 °F
Wind: 10 mph from Southwest

Location: Ponta Delgada / Nordela Acores

Current Time: Mar 3, 2015 at 2:38:38 AM

Latest Report: Mar 3, 2015 at 2:00 AM


Visibility: N/A

Pressure: 30.27 "Hg

Humidity: 94%

Dew point: 57 °F

Location of Ponta DelgadaLocation

Historic Weather in Ponta Delgada — Graph

°F

Ponta Delgada temperature yesterday

Maximum temperature yesterday: 63 °F (at 2:00 PM)
Minimum temperature yesterday: 59 °F (at 12:00 AM)
Average temperature yesterday: 60 °F

Past Weeks' High & Low Weather Summary

 TemperatureHumidityPressure
High63 °F (Feb 16, 11:30 AM)100% (Feb 16, 1:00 AM)30.69 "Hg (Feb 16, 1:00 AM)
Low50 °F (Feb 24, 4:30 AM)55% (Feb 24, 11:30 AM)30.27 "Hg (Mar 2, 1:30 PM)
Average59 °F80%30.54 "Hg
* Reported Feb 16 1:00 AM — Mar 3 1:00 AM, Ponta Delgada, Weather by CustomWeather, © 2015

Note: Actual official high and low records may vary slightly from our data, if they occured in-between our weather recording intervals... More about our weather records

Advertising

Ponta Delgada weather history for previous 24 hours

 ConditionsComfort  
Time TempWeatherWind HumidityBarometerVisibility
1:00 AM
Tue, Mar 3
59 °FPassing clouds.14 mph94%30.27 "HgN/A
12:30 AM61 °FPassing clouds.15 mph88%30.30 "HgN/A
12:00 AM59 °FPassing clouds.14 mph88%30.30 "HgN/A
11:30 PM
Mon, Mar 2
59 °FPassing clouds.14 mph88%30.30 "HgN/A
11:00 PM59 °FPassing clouds.14 mph88%30.30 "HgN/A
10:30 PM61 °FPassing clouds.14 mph83%30.30 "HgN/A
10:00 PM61 °FPassing clouds.15 mph83%30.30 "HgN/A
9:30 PM61 °FPassing clouds.15 mph83%30.30 "HgN/A
9:00 PM59 °FPassing clouds.14 mph88%30.30 "HgN/A
8:30 PM59 °FPassing clouds.14 mph88%30.30 "HgN/A
8:00 PM59 °FPassing clouds.14 mph88%30.27 "HgN/A
7:30 PM59 °FPassing clouds.14 mph88%30.27 "HgN/A
7:00 PM59 °FPassing clouds.17 mph88%30.27 "HgN/A
6:30 PM61 °FPassing clouds.14 mph77%30.27 "HgN/A
6:00 PM61 °FScattered clouds.15 mph77%30.27 "HgN/A
5:30 PM61 °FScattered clouds.14 mph83%30.27 "HgN/A
5:00 PM61 °FScattered clouds.16 mph83%30.27 "HgN/A
4:30 PM61 °FScattered clouds.16 mph83%30.27 "HgN/A
4:00 PM63 °FPassing clouds.16 mph77%30.27 "HgN/A
3:30 PM63 °FPassing clouds.15 mph77%30.27 "HgN/A
3:00 PM63 °FScattered clouds.13 mph77%30.27 "HgN/A
2:30 PM63 °FScattered clouds.14 mph77%30.27 "HgN/A
2:00 PM63 °FScattered clouds.18 mph77%30.27 "HgN/A
1:30 PM61 °FPartly sunny.16 mph83%30.27 "HgN/A
1:00 PM61 °FPartly sunny.15 mph88%30.30 "HgN/A
12:30 PM61 °FBroken clouds.16 mph88%30.30 "HgN/A
12:00 PM61 °FPartly sunny.20 mph88%30.30 "HgN/A
11:30 AM61 °FPartly sunny.14 mph88%30.33 "HgN/A
11:00 AM61 °FBroken clouds.14 mph88%30.33 "HgN/A
10:30 AM61 °FBroken clouds.14 mph88%30.33 "HgN/A
10:00 AM59 °FBroken clouds.15 mph88%30.33 "HgN/A
9:30 AM59 °FBroken clouds.18 mph94%30.33 "HgN/A
9:00 AM61 °FPartly sunny.15 mph88%30.33 "HgN/A
8:30 AM59 °FPartly sunny.14 mph94%30.33 "HgN/A
8:00 AM59 °FPartly sunny.16 mph94%30.30 "HgN/A
7:30 AM59 °FPartly sunny.13 mph94%30.33 "HgN/A
7:00 AM59 °FPassing clouds.15 mph100%30.33 "HgN/A
6:30 AM59 °FPassing clouds.12 mph100%30.33 "HgN/A
6:00 AM59 °FPassing clouds.13 mph100%30.33 "HgN/A
5:30 AM61 °FPassing clouds.15 mph94%30.30 "HgN/A
5:00 AM61 °FPassing clouds.16 mph94%30.30 "HgN/A
4:30 AM59 °FPassing clouds.15 mph100%30.30 "HgN/A
4:00 AM59 °FPassing clouds.12 mph100%30.30 "HgN/A
3:30 AM59 °FPassing clouds.13 mph100%30.33 "HgN/A
3:00 AM59 °FPassing clouds.10 mph100%30.33 "HgN/A
2:30 AM59 °FPassing clouds.9 mph100%30.33 "HgN/A
2:00 AM59 °FPassing clouds.9 mph100%30.33 "HgN/A
Weather by CustomWeather, © 2015

See weather overviewHow to use our weather pages